This is the latest recevied weather packets stored in our database for station/object KC1IUC-15. If no packets are shown the sender has not sent any weather packets the latest 10 day(s).
| Time | Temp. | Humidity | Pressure | Rain* | Wind** | Luminosity | Snow |
|---|---|---|---|---|---|---|---|
| 1778122504 | 12.22° C | 93% | 1007.9 hPa | 1.02 mm | - | 0 W/m² | - |
| 1778122204 | 12.22° C | 93% | 1007.9 hPa | 1.02 mm | - | 0 W/m² | - |
| 1778121903 | 12.22° C | 92% | 1007.9 hPa | 1.02 mm | - | 0 W/m² | - |
| 1778121603 | 12.78° C | 93% | 1007.9 hPa | 1.02 mm | - | 0 W/m² | - |
| 1778121303 | 13.33° C | 94% | 1007.9 hPa | 1.02 mm | - | 0 W/m² | - |
| 1778121004 | 13.89° C | 97% | 1007.5 hPa | 1.02 mm | - | 0 W/m² | - |
| 1778120703 | 15° C | 98% | 1007.2 hPa | 0.76 mm | - | 0 W/m² | - |
| 1778120403 | 15° C | 97% | 1006.9 hPa | 0.25 mm | - | 0 W/m² | - |
| 1778120103 | 15° C | 98% | 1006.9 hPa | 0.25 mm | - | 0 W/m² | - |
| 1778119803 | 15° C | 97% | 1007.2 hPa | 0 mm | - | 0 W/m² | - |
| 1778119503 | 15° C | 98% | 1006.9 hPa | 0 mm | - | 0 W/m² | - |
| 1778119203 | 15° C | 98% | 1006.5 hPa | 0 mm | - | 0 W/m² | - |
| 1778118904 | 15° C | 98% | 1006.5 hPa | 0 mm | - | 0 W/m² | - |
| 1778118603 | 15° C | 97% | 1006.9 hPa | 0 mm | - | 0 W/m² | - |
| 1778118304 | 15° C | 97% | 1006.9 hPa | 0 mm | - | 0 W/m² | - |
| 1778118003 | 15° C | 97% | 1006.9 hPa | 0 mm | - | 0 W/m² | - |
| 1778117704 | 14.44° C | 98% | 1006.9 hPa | 0 mm | - | 0 W/m² | - |
| 1778117404 | 14.44° C | 97% | 1006.9 hPa | 0 mm | - | 0 W/m² | - |
| 1778117104 | 14.44° C | 97% | 1006.9 hPa | 0 mm | - | 0 W/m² | - |
| 1778116804 | 14.44° C | 97% | 1006.9 hPa | 0 mm | - | 0 W/m² | - |
| 1778116504 | 14.44° C | 97% | 1006.5 hPa | 0 mm | - | 0 W/m² | - |
| 1778116203 | 14.44° C | 97% | 1006.5 hPa | 0 mm | - | 0 W/m² | - |
| 1778115903 | 14.44° C | 97% | 1006.5 hPa | 0 mm | - | 0 W/m² | - |
| 1778115603 | 14.44° C | 97% | 1006.5 hPa | 0 mm | - | 0 W/m² | - |
| 1778115304 | 14.44° C | 97% | 1006.2 hPa | 0 mm | - | 0 W/m² | - |
* Rain latest hour (hover to see other rain measurements)
** Current wind speed in m/s (hover to see current wind gust speed)